This demonstration page uses our WeatherBlox Daily Observations layout. Learn more.

Left ArrowRight Arrow

39.51506, -84.39828

Hourly Observations for June 15, 2015

Temp ( °F °C ) Dew Point ( °F °C ) Humidity (%) Winds ( mph kmh ) Pressure ( in mb ) Visibility ( mi km ) Precip ( " mm )
12:15 am 00:15 Clear 77 25.1 70 21 78 78 SW 7 11 30.00 1016 10 16 N/A
12:35 am 00:35 Clear 77 25.1 69 20.7 77 77 SW 7 11 30.00 1016 10 16 N/A
12:55 am 00:55 Clear 77 25.1 69 20.7 77 77 SW 7 11 30.00 1016 10 16 N/A
1:15 am 01:15 Clear 77 25.1 70 21.1 79 79 WSW 3 6 30.03 1017 10 16 N/A
1:35 am 01:35 Clear 77 25.1 70 21 78 78 W 5 7 30.03 1017 10 16 N/A
1:55 am 01:55 Clear 77 25.1 70 21.1 79 79 W 3 6 30.03 1017 10 16 N/A
2:15 am 02:15 Partly Cloudy 77 25.1 70 21.2 79 79 N N/A 30.03 1017 10 16 N/A
2:35 am 02:35 Partly Cloudy 77 25.1 71 21.8 82 82 N N/A 30.03 1017 10 16 N/A
2:55 am 02:55 Partly Cloudy 77 25.1 72 22 83 83 N N/A 30.03 1017 10 16 N/A
3:15 am 03:15 Partly Cloudy 74 23.6 70 21 85 85 N N/A 30.03 1017 10 16 N/A
3:35 am 03:35 Partly Cloudy 74 23.6 70 21.2 86 86 N N/A 30.03 1017 10 16 N/A
3:55 am 03:55 Mostly Cloudy with Light Rain 74 23.6 70 21.3 87 87 W 13 20 30.03 1017 10 16 N/A
4:15 am 04:15 Mostly Cloudy with Light Rain 74 23.6 70 21 85 85 W 5 7 30.03 1017 10 16 N/A
4:35 am 04:35 Mostly Cloudy 74 23.6 70 21.2 86 86 WSW 8 13 30.03 1017 10 16 N/A
4:55 am 04:55 Cloudy with Light Rain 74 23.6 70 21 85 85 WNW 6 9 30.03 1017 7 11 N/A
5:15 am 05:15 Mostly Cloudy with Light Rain 74 23.6 70 21.1 86 86 N N/A 30.03 1017 10 16 N/A
5:35 am 05:35 Partly Cloudy 74 23.6 70 21.1 86 86 SSW 3 6 30.03 1017 10 16 N/A
5:55 am 05:55 Partly Cloudy 74 23.6 70 21.3 87 87 N N/A 30.03 1017 10 16 N/A
6:15 am 06:15 Partly Cloudy with Mist and Fog 74 23.6 71 21.5 88 88 N N/A 30.03 1017 5 8 N/A
6:35 am 06:35 Partly Cloudy with Mist and Fog 74 23.6 71 21.6 89 89 N N/A 30.03 1017 5 8 N/A
6:55 am 06:55 Mostly Cloudy with Mist and Fog 74 23.6 71 21.7 89 89 N N/A 30.03 1017 5 8 N/A
7:15 am 07:15 Cloudy 74 23.6 71 21.7 89 89 W 3 6 30.03 1017 7 11 N/A
7:35 am 07:35 Cloudy with Rain 74 23.6 71 21.7 89 89 WNW 5 7 30.06 1018 7 11 N/A
7:55 am 07:55 Cloudy with Heavy Rain 74 23.6 71 21.6 89 89 WSW 8 13 30.06 1018 3 5 N/A
8:15 am 08:15 Mostly Cloudy with Light Rain 74 23.6 71 21.5 88 88 W 5 7 30.06 1018 7 11 N/A
8:35 am 08:35 Mostly Cloudy 74 23.6 70 21.2 86 86 WNW 5 7 30.06 1018 10 16 N/A
8:55 am 08:55 Cloudy 74 23.6 70 21 85 85 N N/A 30.06 1018 10 16 N/A
9:15 am 09:15 Partly Cloudy 77 25.1 72 22.2 84 84 N N/A 30.06 1018 10 16 N/A
9:35 am 09:35 Partly Cloudy with Light Rain 76 24.7 71 21.9 84 84 N N/A 30.06 1018 7 11 N/A
9:55 am 09:55 Partly Cloudy 78 25.5 73 22.6 84 84 N N/A 30.06 1018 10 16 N/A
10:15 am 10:15 Mostly Cloudy 77 25.1 72 22.1 83 83 SW 5 7 30.06 1018 10 16 N/A
10:35 am 10:35 Mostly Cloudy 80 26.5 73 22.8 80 80 SW 7 11 30.06 1018 10 16 N/A
10:55 am 10:55 Mostly Cloudy N/A N/A N/A undefined N/A N/A N/A N/A
11:15 am 11:15 undefined N/A N/A N/A undefined N/A N/A N/A N/A
11:35 am 11:35 undefined 82 27.8 73 22.8 74 74 W 9 15 30.06 1018 N/A N/A
11:55 am 11:55 Mostly Cloudy 82 28 72 22.3 71 71 WNW 9 15 30.06 1018 10 16 N/A
12:15 pm 12:15 Partly Cloudy 83 28.6 73 22.7 70 70 WNW 8 13 30.00 1016 10 16 N/A
12:35 pm 12:35 Partly Cloudy 85 29.3 73 22.7 68 68 W 7 11 30.00 1016 10 16 N/A
12:55 pm 12:55 Partly Cloudy with Drizzle 81 27.2 70 21.3 70 70 WSW 8 13 30.03 1017 10 16 N/A
1:15 pm 13:15 Sunny 83 28.5 72 22.4 70 70 SW 9 15 30.00 1016 10 16 N/A
1:35 pm 13:35 Sunny 90 32.1 74 23.2 59 59 WSW 15 24 29.97 1015 10 16 N/A
1:55 pm 13:55 Sunny 90 32.1 73 22.8 58 58 W 13 20 30.00 1016 10 16 N/A
2:15 pm 14:15 Partly Cloudy 90 32.1 73 22.7 58 58 WSW 13 20 29.97 1015 10 16 N/A
2:35 pm 14:35 Sunny 90 32.1 72 22 55 55 WSW 10 17 29.97 1015 10 16 N/A
2:55 pm 14:55 Mostly Cloudy 88 30.9 70 21.3 57 57 WSW 14 22 29.97 1015 10 16 N/A
3:15 pm 15:15 Partly Cloudy 88 31.3 71 21.7 57 57 SW 13 20 29.97 1015 10 16 N/A
3:35 pm 15:35 Partly Cloudy 90 32.1 73 22.9 58 58 SW 8 13 29.97 1015 10 16 N/A
3:55 pm 15:55 Partly Cloudy 90 32.1 73 23 59 59 SW 7 11 29.94 1014 10 16 N/A
4:15 pm 16:15 Partly Cloudy 90 32.1 69 20.7 51 51 SW 12 19 29.94 1014 10 16 N/A
4:35 pm 16:35 Partly Cloudy 90 32.1 69 20.3 50 50 WSW 15 24 29.94 1014 10 16 N/A
4:55 pm 16:55 Partly Cloudy 90 32.1 69 20.4 50 50 SW 18 30 29.94 1014 10 16 N/A
5:15 pm 17:15 Sunny 90 32.1 69 20.8 51 51 SW 12 19 29.94 1014 10 16 N/A
5:35 pm 17:35 Partly Cloudy 90 32.1 71 21.5 53 53 WSW 8 13 29.91 1013 10 16 N/A
5:55 pm 17:55 Partly Cloudy 90 32.1 70 21.3 53 53 WSW 14 22 29.91 1013 10 16 N/A
6:15 pm 18:15 Mostly Cloudy 90 32.1 71 21.5 53 53 WSW 13 20 29.91 1013 10 16 N/A
6:35 pm 18:35 Mostly Cloudy 90 32.1 70 21.2 53 53 WSW 12 19 29.91 1013 10 16 N/A
6:55 pm 18:55 Partly Cloudy 90 32.1 70 21.1 52 52 WSW 9 15 29.91 1013 10 16 N/A
7:15 pm 19:15 Sunny 90 32.1 70 21.2 53 53 SW 10 17 29.91 1013 10 16 N/A
7:35 pm 19:35 Sunny 90 32.1 71 21.7 54 54 WSW 10 17 29.91 1013 10 16 N/A
7:55 pm 19:55 Sunny 87 30.8 70 21.1 56 56 WSW 6 9 29.91 1013 10 16 N/A
8:15 pm 20:15 Sunny 87 30.3 70 21.1 58 58 SW 6 9 29.91 1013 10 16 N/A
8:35 pm 20:35 Sunny 84 28.7 69 20.5 61 61 WSW 6 9 29.91 1013 10 16 N/A
8:55 pm 20:55 Sunny 82 28 70 21.1 66 66 WSW 6 9 29.91 1013 10 16 N/A
9:15 pm 21:15 Clear 81 27.4 69 20.6 66 66 SW 7 11 29.94 1014 10 16 N/A
9:35 pm 21:35 Clear 81 27.1 69 20.7 68 68 SW 6 9 29.97 1015 10 16 N/A
9:55 pm 21:55 Clear 80 26.5 69 20.4 69 69 WSW 5 7 29.97 1015 10 16 N/A
10:15 pm 22:15 Partly Cloudy 80 26.5 69 20.7 71 71 WSW 6 9 29.97 1015 10 16 N/A
10:35 pm 22:35 Clear 80 26.5 69 20.8 71 71 WSW 5 7 29.97 1015 10 16 N/A
10:55 pm 22:55 Clear 80 26.5 70 21 72 72 SW 6 9 29.97 1015 10 16 N/A
11:15 pm 23:15 Partly Cloudy 80 26.5 70 21.3 73 73 SW 7 11 29.97 1015 10 16 N/A
11:35 pm 23:35 Mostly Cloudy 80 26.5 69 20.8 71 71 SW 7 11 29.97 1015 10 16 N/A
11:55 pm 23:55 Cloudy 80 26.5 68 20.1 68 68 SW 8 13 29.97 1015 10 16 N/A

Powered by AerisWeather